Date String (YYYY-MM-DD hh:mm:ss) UTC,Instrument flags,Ambient pressure (hPa),Sample flow (lpm),Bypass flow (lpm),Sample temperature (°C),Ambient temperature (°C),ASC tube jacket temperature (°C),LED temperature (°C),Box temperature (°C),Sample RH (%),Span deviation,Mass concentration (μg/m³),Mass concentration (μg/m³),Mass concentration (μg/m³)
DateTimeUTC,F1_M11,P_M11,Q1_M11,Q2_M11,T1_M11,T2_M11,T3_M11,T4_M11,T5_M11,U1_M11,ZSPAN_M11,X2_M11,X0_M11,X1_M11
2021-09-11 15:00:00,,0830.5,5.01,0.00,29.7,28.3,00.0,38.7,31.5,15.0,0001.6,0011.93,0029.15,0009.95
2021-09-11 15:01:00,,0830.5,4.99,0.00,29.7,28.5,00.0,38.8,31.5,14.4,0001.8,0011.87,0029.37,0009.94
2021-09-11 15:02:00,,0830.5,5.00,0.00,29.8,28.7,00.0,38.8,31.6,14.7,0002.0,0011.83,0028.76,0009.92
2021-09-11 15:03:00,,0830.5,5.00,0.00,29.8,28.8,00.0,38.8,31.6,14.7,0001.8,0011.82,0028.53,0009.91
2021-09-11 15:04:00,,0830.5,4.99,0.00,29.8,28.9,00.0,38.8,31.7,15.2,0001.8,0011.82,0030.33,0009.91
2021-09-11 15:05:00,,0830.5,5.01,0.00,29.9,28.9,00.0,38.8,31.7,15.4,0001.8,0011.79,0029.69,0009.90
2021-09-11 15:06:00,,0830.5,5.00,0.00,29.8,27.5,00.0,38.8,31.4,16.1,0001.9,0011.85,0028.70,0009.91
2021-09-11 15:07:00,,0830.5,4.99,0.00,29.7,26.4,00.0,38.8,31.1,17.0,0002.0,0011.88,0027.70,0009.94
2021-09-11 15:08:00,,0830.5,5.01,0.00,29.6,26.8,00.0,38.8,31.1,17.6,0002.0,0011.92,0027.94,0009.96
2021-09-11 15:09:00,,0830.6,5.00,0.00,29.6,27.2,00.0,38.8,31.2,17.2,0001.9,0011.99,0027.25,0009.98
2021-09-11 15:10:00,,0830.5,4.99,0.00,29.6,27.5,00.0,38.7,31.3,16.7,0001.8,0012.07,0028.17,0009.98
2021-09-11 15:11:00,,0830.5,5.00,0.00,29.6,27.9,00.0,38.7,31.4,16.7,0001.9,0012.13,0029.11,0010.00
2021-09-11 15:12:00,,0830.6,4.99,0.00,29.7,28.2,00.0,38.7,31.4,16.7,0002.0,0012.21,0028.49,0010.03
2021-09-11 15:13:00,,0830.6,5.02,0.00,29.7,28.4,00.0,38.7,31.5,16.5,0001.9,0012.29,0028.81,0010.05
2021-09-11 15:14:00,,0830.6,5.00,0.00,29.7,28.6,00.0,38.8,31.6,16.4,0002.1,0012.36,0028.81,0010.10
2021-09-11 15:15:00,,0830.6,5.00,0.00,29.8,28.7,00.0,38.8,31.6,15.6,0002.2,0012.41,0026.98,0010.13
2021-09-11 15:16:00,,0830.5,5.00,0.00,29.8,28.9,00.0,38.8,31.7,15.0,0002.4,0012.40,0028.02,0010.16
2021-09-11 15:17:00,,0830.5,4.99,0.00,29.9,29.0,00.0,38.8,31.7,14.6,0002.2,0012.44,0028.80,0010.20
2021-09-11 15:18:00,,0830.5,5.01,0.00,29.9,28.0,00.0,38.8,31.5,15.3,0002.0,0012.47,0028.93,0010.22
2021-09-11 15:19:00,,0830.4,5.01,0.00,29.7,26.5,00.0,38.8,31.1,15.8,0002.0,0012.46,0028.52,0010.25
2021-09-11 15:20:00,,0830.4,4.99,0.00,29.6,26.6,00.0,38.8,31.1,16.2,0002.0,0012.44,0027.42,0010.26
2021-09-11 15:21:00,,0830.4,5.00,0.00,29.6,27.0,00.0,38.8,31.2,16.1,0001.9,0012.43,0026.35,0010.31
2021-09-11 15:22:00,,0830.4,5.00,0.00,29.6,27.4,00.0,38.7,31.3,15.8,0002.1,0012.40,0026.02,0010.33
2021-09-11 15:23:00,,0830.4,4.99,0.00,29.6,27.8,00.0,38.7,31.3,14.0,0002.1,0012.32,0025.34,0010.33
2021-09-11 15:24:00,,0830.3,5.01,0.00,29.6,28.1,00.0,38.7,31.4,14.4,0002.2,0012.22,0024.50,0010.35
2021-09-11 15:25:00,,0830.3,4.99,0.00,29.7,28.4,00.0,38.7,31.5,15.3,0002.1,0012.16,0024.10,0010.34
2021-09-11 15:26:00,,0830.3,5.00,0.00,29.7,28.6,00.0,38.7,31.6,14.9,0002.1,0012.09,0024.49,0010.36
2021-09-11 15:27:00,,0830.3,5.00,0.00,29.8,28.8,00.0,38.7,31.6,14.9,0002.2,0012.08,0023.79,0010.34
2021-09-11 15:28:00,,0830.4,4.99,0.00,29.8,28.7,00.0,38.8,31.6,15.4,0002.2,0011.99,0023.44,0010.32
2021-09-11 15:29:00,,0830.4,5.00,0.00,29.7,27.2,00.0,38.8,31.2,15.7,0002.5,0011.95,0023.56,0010.34
2021-09-11 15:30:00,,0830.4,5.01,0.00,29.6,26.3,00.0,38.7,31.0,15.7,0002.5,0011.95,0023.53,0010.36
2021-09-11 15:31:00,,0830.5,5.00,0.00,29.6,26.7,00.0,38.7,31.0,15.9,0002.4,0011.98,0023.62,0010.37
2021-09-11 15:32:00,,0830.5,5.00,0.00,29.5,27.1,00.0,38.7,31.1,16.3,0002.6,0012.01,0024.40,0010.37
2021-09-11 15:33:00,,0830.4,5.00,0.00,29.5,27.5,00.0,38.7,31.2,15.2,0002.4,0012.09,0025.27,0010.39
2021-09-11 15:34:00,,0830.5,5.01,0.00,29.5,27.8,00.0,38.7,31.3,16.1,0002.4,0012.15,0025.58,0010.40
2021-09-11 15:35:00,,0830.4,4.99,0.00,29.6,28.1,00.0,38.7,31.4,16.8,0002.3,0012.20,0026.33,0010.41
2021-09-11 15:36:00,,0830.4,5.01,0.00,29.6,28.4,00.0,38.7,31.4,17.1,0002.5,0012.22,0026.72,0010.43
2021-09-11 15:37:00,,0830.5,5.00,0.00,29.7,28.6,00.0,38.7,31.5,16.2,0002.4,0012.22,0027.50,0010.44
2021-09-11 15:38:00,,0830.5,5.00,0.00,29.7,28.7,00.0,38.7,31.6,15.9,0002.4,0012.22,0027.47,0010.46
2021-09-11 15:39:00,,0830.5,5.00,0.00,29.8,28.8,00.0,38.7,31.7,15.5,0002.3,0012.23,0028.16,0010.48
2021-09-11 15:40:00,,0830.5,5.01,0.00,29.8,27.6,00.0,38.7,31.3,15.2,0002.2,0012.20,0027.44,0010.48
2021-09-11 15:41:00,,0830.4,4.99,0.00,29.6,26.4,00.0,38.7,31.0,15.7,0002.2,0012.17,0027.15,0010.47
2021-09-11 15:42:00,,0830.4,5.00,0.00,29.5,26.6,00.0,38.7,31.0,16.2,0002.3,0012.18,0027.16,0010.49
2021-09-11 15:43:00,,0830.4,5.00,0.00,29.5,27.0,00.0,38.7,31.1,16.4,0002.1,0012.12,0027.39,0010.49
2021-09-11 15:44:00,,0830.5,5.01,0.00,29.5,27.4,00.0,38.6,31.2,16.0,0002.0,0012.05,0027.45,0010.49
2021-09-11 15:45:00,,0830.5,5.00,0.00,29.5,27.8,00.0,38.6,31.3,16.3,0001.8,0012.05,0027.80,0010.48
2021-09-11 15:46:00,,0830.4,4.99,0.00,29.6,28.1,00.0,38.6,31.4,16.6,0001.8,0012.00,0027.87,0010.48
2021-09-11 15:47:00,,0830.4,5.00,0.00,29.6,28.4,00.0,38.6,31.4,16.7,0001.6,0011.95,0027.86,0010.47
2021-09-11 15:48:00,,0830.4,5.01,0.00,29.7,28.5,00.0,38.6,31.5,16.1,0001.6,0011.87,0026.34,0010.45
2021-09-11 15:49:00,,0830.4,4.99,0.00,29.7,27.5,00.0,38.7,31.2,16.1,0001.4,0011.86,0025.66,0010.45
2021-09-11 15:50:00,,0830.4,5.01,0.00,29.5,26.1,00.0,38.6,30.8,16.3,0001.6,0011.89,0024.96,0010.47
2021-09-11 15:51:00,,0830.4,5.00,0.00,29.4,26.4,00.0,38.6,30.9,16.6,0001.7,0011.88,0024.93,0010.45
2021-09-11 15:52:00,,0830.5,5.00,0.00,29.4,26.8,00.0,38.6,31.0,16.7,0001.8,0011.84,0025.65,0010.44
2021-09-11 15:53:00,,0830.4,5.00,0.00,29.4,27.2,00.0,38.6,31.1,16.8,0001.7,0011.76,0025.91,0010.42
2021-09-11 15:54:00,,0830.4,4.99,0.00,29.4,27.6,00.0,38.5,31.2,16.4,0001.8,0011.75,0025.91,0010.40
2021-09-11 15:55:00,,0830.4,5.00,0.00,29.5,28.0,00.0,38.5,31.3,16.7,0001.7,0011.75,0025.31,0010.41
2021-09-11 15:56:00,,0830.4,5.01,0.00,29.5,28.2,00.0,38.5,31.3,16.4,0001.9,0011.77,0024.44,0010.43
2021-09-11 15:57:00,,0830.4,5.00,0.00,29.6,28.4,00.0,38.6,31.4,17.3,0002.0,0011.76,0024.32,0010.44
2021-09-11 15:58:00,,0830.4,5.00,0.00,29.6,27.5,00.0,38.6,31.2,17.5,0002.0,0011.78,0025.00,0010.43
2021-09-11 15:59:00,,0830.4,5.01,0.00,29.4,26.2,00.0,38.5,30.8,16.9,0001.9,0011.83,0025.58,0010.43
